Powrót do katalogu

STARLINK-33850

AktywnyŁącznośćVLEO
NORAD 63679·PAYLOAD·🇺🇸 United States

Wystrzelony Apr 28, 2025 z Cape Canaveral Space Force Station

Loading…

Następne Przeloty (najbliższe 24 godziny)

TLE

ŚwieżeSource: CelesTrak SupGP

Epoka: Sep 14, 2026, 22:57 UTC

1 63679C 25085R   26257.95673611  .00035956  00000+0  13025-2 0  2578
2 63679  43.0038  41.9948 0001638 264.0005 192.1266 15.27556860    14

Śledź STARLINK-33850 w czasie rzeczywistym z AllMySat

Download on the App Store